Location: *
(55.5817°S, 142.4781°W)
Time: 07:19:59
(UTC+00:00)

Meteor 2-17 Rocket - Pass Details

Date: 29 April 2025
Orbit: 934 x 957 km, 82.5° (Epoch: 23 May)

Event Time Altitude Azimuth Distance (km) Brightness Sun altitude
Rises 13:57:05 0° 193° (SSW) 3,663 7.5 -24.7°
Reaches altitude 10° 13:59:36 10° 194° (SSW) 2,715 6.8 -24.4°
Maximum altitude 14:05:49 78° 278° (W) 993 4.3 -23.5°
Drops below altitude 10° 14:12:00 10° 3° (N) 2,698 6.8 -22.7°
Sets 14:14:29 0° 4° (N) 3,638 7.5 -22.3°
